{"data":{"norad_id":43582,"intl_designator":"2018-062B","name":"BEIDOU-3 M6 (C24)","alt_names":[],"object_type":"PAYLOAD","status":"ACTIVE","operator":null,"country":"PRC","launch_date":"2018-07-29","launch_site_code":"XICLF","launch_vehicle":null,"mission":null,"orbit_class":"UNKNOWN","rcs_meters":null,"size_class":null,"mass_kg":null,"dimensions":null,"purposes":["nav"],"wikipedia_slug":null,"has_3d_model":false,"image_url":null,"decayed_at":null,"tle_current":{"epoch":"2026-05-24T08:16:00.740064Z","epoch_age_seconds":134859,"freshness":"FRESH","line1":"1 43582U 18062B   26144.34445301  .00000052  00000+0  00000+0 0  9995","line2":"2 43582  54.0836 183.1035 0004844  12.8500 347.2289  1.86227529 53192","mean_motion":1.86227529,"eccentricity":0.0004844,"inclination_deg":54.0836,"raan_deg":183.1035,"arg_perigee_deg":12.85,"mean_anomaly_deg":347.2289,"bstar":0,"rev_number":5319,"period_min":773.24765448614,"perigee_km":21514.880389918,"apogee_km":21541.916241332,"semimajor_km":27906.535315625,"source":"CELESTRAK","updated_at":"2026-05-25T13:38:24.218964Z"}}}